Theta_e
310 310 308 304 304 303 304 305 308 309 309 308 307 306 308 308 308 311 314 317 319 312 313 312 312 312 313 314 314 312 318 318 316 316 317 313 314 311 311 312 311 313 314 313 316
307 306 306 305 304 304 304 304 305 306 307 306 306 309 308 310 307 310 311 312 309 311 313 314 313 313 315 314 314 317 317 315 313 314 315 313 312 312 313 312 312 312 312 314 315
306 306 306 306 305 305 305 305 305 305 306 308 309 308 310 312 308 309 309 309 309 312 312 312 310 313 315 314 313 314 316 314 313 313 313 313 313 313 314 313 313 313 314 316 315
306 306 306 306 306 306 305 305 307 308 308 308 310 310 308 307 310 309 309 309 309 312 311 312 312 314 315 314 311 314 312 313 314 312 312 312 312 312 312 312 312 312 312 315 315
305 307 305 307 307 307 306 306 307 308 308 308 308 307 306 310 310 309 309 309 309 312 312 313 313 314 315 313 312 313 312 312 311 312 312 312 312 312 312 310 310 309 311 314 315
305 307 305 307 307 307 307 307 307 309 309 309 309 308 309 311 309 309 309 310 310 311 312 313 312 313 314 313 314 312 313 313 313 311 311 311 311 309 310 310 310 310 311 312 313
304 306 306 307 307 307 307 307 307 308 309 308 307 308 311 310 309 309 310 310 310 310 312 309 311 315 313 313 310 311 313 313 310 311 311 308 309 311 307 309 310 310 310 311 313
305 305 307 306 307 307 307 307 307 309 309 309 307 309 312 309 309 309 310 310 310 311 310 309 308 310 312 309 308 310 310 313 309 310 309 310 313 308 307 308 309 309 310 312 313
307 305 306 308 307 307 307 307 309 309 308 309 308 310 311 309 309 308 309 310 309 309 308 306 309 311 310 313 312 312 313 311 311 308 309 310 313 308 308 309 309 308 312 313 313
308 306 305 308 308 308 308 308 309 309 308 308 309 313 310 309 308 307 309 307 309 310 312 312 312 314 313 315 319 313 313 311 312 309 310 311 311 309 309 309 308 309 312 313 313
309 309 306 307 308 309 308 307 310 314 309 309 309 308 308 308 307 308 308 309 310 312 314 310 316 315 312 311 310 310 310 311 311 307 310 311 310 309 309 309 310 311 312 311 309
311 310 308 306 308 308 308 310 308 309 311 307 307 307 306 306 310 309 309 312 313 313 310 314 314 311 310 309 309 309 310 312 311 307 309 310 310 308 309 308 308 310 311 309 309
313 311 308 306 308 309 308 309 307 307 314 309 307 307 307 307 308 309 309 309 312 313 313 315 311 309 310 311 312 308 311 311 310 310 307 309 311 309 308 309 310 310 309 310 309
313 311 309 307 306 307 309 309 310 307 319 312 311 309 308 307 309 306 306 309 311 312 311 312 309 310 309 311 310 313 307 309 310 311 315 308 318 310 310 310 310 310 311 310 307
313 311 310 309 305 306 307 308 310 310 340 311 310 307 307 310 307 309 305 310 311 310 310 312 312 311 311 310 309 311 307 308 309 311 311 311 314 312 309 311 311 310 310 309 306
312 313 312 308 307 307 308 309 311 322 335 313 309 309 312 309 308 307 309 307 307 311 310 309 309 310 310 308 308 307 307 308 310 311 320 312 312 311 311 309 309 310 309 307 304
312 313 312 308 308 308 309 312 324 334 310 312 311 308 309 310 310 308 309 309 313 324 318 312 309 308 306 308 307 309 312 320 318 322 314 308 311 311 306 306 306 308 310 306 303
313 312 310 308 309 308 308 317 328 312 311 308 308 308 312 309 308 309 310 312 309 308 315 317 325 309 307 308 310 308 310 322 317 317 312 306 311 311 305 306 307 305 308 303 303
313 313 311 308 308 309 313 324 322 313 309 310 309 314 313 310 309 310 309 310 307 306 314 315 316 306 306 307 306 309 312 306 310 307 310 310 308 305 306 307 306 305 303 304 301
313 311 311 308 306 306 315 313 308 307 307 307 314 310 317 313 316 313 310 306 307 305 304 306 315 306 305 306 306 307 306 311 310 315 312 309 308 309 307 306 306 303 303 300 298
312 317 310 307 306 312 319 310 306 305 306 308 310 311 311 314 312 311 308 306 306 305 305 306 308 311 307 308 309 308 309 307 307 309 313 310 309 306 306 304 304 304 300 298 295
312 319 311 307 317 307 311 307 305 306 305 307 307 309 312 309 314 312 310 307 305 305 307 306 308 313 312 304 303 305 307 308 313 312 310 310 309 303 302 302 302 301 297 295 293
315 315 311 309 322 312 306 307 306 307 306 307 308 308 306 310 316 310 307 305 304 305 307 307 310 318 316 307 303 306 306 306 306 307 310 311 308 304 302 302 300 299 296 294 293
312 320 316 308 305 310 310 310 309 305 305 305 307 305 308 311 307 312 309 305 304 304 304 304 309 315 318 317 308 311 311 307 306 309 309 308 307 305 304 301 298 296 294 293 292
309 313 307 320 314 309 311 310 310 310 306 305 307 309 312 315 312 312 307 305 304 305 304 304 309 308 308 307 306 307 309 309 309 307 308 306 305 304 303 298 295 294 293 292 291
314 312 304 306 306 313 311 311 313 310 309 310 309 310 308 316 317 318 311 308 313 306 305 302 310 304 306 307 305 304 305 306 305 306 305 304 303 298 295 293 294 294 292 291 289
302 302 312 306 309 316 318 314 312 309 308 308 309 310 308 309 307 305 305 304 306 307 306 303 306 305 310 300 301 307 305 305 302 300 301 302 301 295 297 296 294 293 291 289 288
Wind_Speed
12 9 8 8 7 7 9 7 8 7 3 3 5 4 2 6 17 15 14 14 14 15 9 5 4 4 5 4 5 1 2 4 5 5 5 2 3 2 2 3 2 1 2 2 12
14 10 8 7 7 6 7 6 5 4 1 1 3 4 4 1 2 17 14 17 12 10 5 7 4 5 4 3 4 3 1 3 2 3 4 3 2 0 3 4 5 5 4 8 11
15 10 7 6 6 5 4 6 4 3 2 2 3 5 2 1 2 7 23 17 13 5 3 2 3 3 4 4 6 4 3 5 3 2 1 1 2 2 3 5 2 3 5 10 9
15 12 6 5 5 5 4 4 5 5 3 3 3 1 5 2 2 10 21 16 13 4 2 3 2 3 3 4 3 5 4 2 3 2 0 1 2 3 3 4 5 6 3 9 8
16 15 6 6 4 5 5 5 5 5 5 5 4 3 3 6 5 15 14 14 11 7 8 3 5 3 5 5 4 8 4 4 3 2 1 2 3 4 4 9 4 1 7 7 7
16 16 8 6 6 5 6 6 6 8 9 12 13 8 2 7 8 15 9 11 13 10 11 9 5 5 8 5 5 4 5 5 2 2 2 4 2 4 6 11 3 2 4 3 6
19 14 10 5 6 5 6 7 5 3 5 5 4 4 18 6 8 14 8 12 12 10 6 7 3 2 2 5 2 4 3 4 5 5 1 3 3 5 10 9 4 3 4 5 7
22 14 11 5 3 4 4 5 3 3 4 3 5 5 5 7 10 15 8 8 10 9 8 5 8 8 4 5 3 1 1 1 3 6 2 5 3 4 11 11 6 3 5 7 8
24 18 8 7 3 4 4 3 3 4 6 3 4 2 4 5 7 15 11 5 4 5 9 7 6 5 2 2 3 4 1 3 2 4 5 5 4 4 12 9 6 2 4 8 9
25 20 8 8 3 7 13 14 8 1 3 3 7 3 5 5 7 11 7 7 4 1 1 6 4 4 8 3 3 3 3 3 5 6 7 8 4 10 11 8 6 4 6 8 9
24 22 13 7 4 12 1 2 1 2 14 5 2 3 2 10 3 13 10 2 2 6 3 5 8 8 7 7 4 3 3 5 5 3 11 3 6 5 8 9 7 7 8 9 8
23 25 16 5 3 6 3 4 2 4 8 5 2 2 2 5 3 17 11 2 5 4 1 4 7 3 2 3 1 2 3 4 5 3 8 5 8 3 8 8 7 7 8 8 7
25 25 16 2 3 3 7 8 8 4 3 3 2 2 3 5 4 11 10 2 5 6 9 5 4 1 2 3 5 1 5 8 6 11 2 11 4 2 5 6 7 8 7 6 5
25 23 16 3 2 4 4 6 3 2 2 6 4 4 2 1 3 4 7 3 3 3 3 6 2 2 4 3 3 1 2 5 9 6 3 4 3 2 2 3 4 5 6 7 6
24 16 19 15 3 3 4 4 2 1 2 4 3 4 3 4 5 8 5 2 4 3 2 3 1 1 2 2 0 3 6 4 2 2 4 1 3 5 3 3 5 5 5 4 4
23 13 18 6 9 4 3 2 2 1 4 1 3 7 1 6 4 6 5 7 2 1 6 3 1 2 2 1 1 6 2 2 1 1 2 2 5 2 2 1 3 7 7 5 3
20 11 15 9 2 2 1 3 2 2 1 1 2 4 2 7 5 8 5 7 5 2 5 1 2 1 3 2 1 4 5 2 1 1 3 2 5 6 2 1 5 7 8 5 3
17 6 6 9 4 2 2 2 2 1 2 1 0 1 3 7 4 5 2 3 8 4 4 5 0 4 5 4 3 4 5 1 4 4 9 2 6 1 1 2 2 5 6 5 3
13 2 2 9 4 3 0 1 1 3 3 5 1 2 2 1 2 2 5 2 5 8 5 5 2 2 4 2 2 2 1 3 4 1 2 3 3 4 3 3 3 6 5 3 2
8 1 2 5 3 3 2 1 1 2 3 1 2 1 2 3 1 3 3 1 2 3 2 2 5 2 2 1 5 2 4 2 1 5 6 5 7 5 5 3 6 7 6 2 2
2 1 2 2 3 3 1 2 2 0 1 2 2 3 2 2 1 2 1 2 1 2 3 2 0 1 2 1 1 1 2 1 2 3 4 6 4 3 2 3 5 6 3 1 4
1 2 2 1 0 2 3 3 2 2 1 1 2 2 2 2 1 1 1 1 2 2 2 1 1 4 2 1 1 1 2 2 3 3 4 3 9 3 4 3 2 3 2 2 5
1 2 2 0 2 3 2 2 0 3 3 2 2 1 1 2 0 1 1 1 4 3 3 5 1 5 3 3 2 2 3 3 1 2 12 7 5 4 5 4 2 4 3 5 7
1 2 2 3 1 6 5 3 3 0 3 3 3 2 3 2 1 2 3 3 5 3 3 3 3 7 8 10 3 13 13 8 8 7 10 16 21 14 8 8 7 4 4 8 8
2 1 2 2 2 4 3 6 5 5 1 3 2 4 4 3 2 3 3 4 2 5 4 4 6 8 13 13 9 14 20 17 17 21 11 16 16 17 15 8 3 4 7 9 9
2 2 1 2 1 4 1 6 8 4 6 3 4 5 7 5 6 5 5 5 5 5 6 3 3 1 4 14 10 13 22 17 17 20 21 23 24 5 2 2 5 7 9 9 8
3 2 2 1 2 3 3 5 7 6 4 1 6 5 7 8 3 2 2 4 1 5 9 6 3 2 4 1 8 13 12 16 7 7 6 8 4 2 4 6 6 9 10 6 10
Wind_Direction
30 38 48 73 85 101 110 122 136 146 142 29 12 33 61 46 46 51 40 338 327 333 348 347 28 29 50 70 41 274 113 133 157 167 139 143 201 133 358 270 218 183 300 51 141
33 39 53 72 85 97 111 118 135 152 198 336 10 356 320 296 53 49 0 351 347 345 8 18 48 27 68 48 25 19 119 121 92 99 133 143 249 298 248 218 220 203 133 137 152
33 37 44 60 87 100 109 115 118 120 98 55 5 11 23 157 163 10 352 1 3 22 65 68 78 57 72 31 16 32 63 129 133 109 112 143 210 235 261 260 300 284 174 161 162
28 31 52 46 70 95 108 106 108 100 62 6 5 38 43 118 44 344 351 4 16 31 78 69 97 85 77 76 34 104 73 58 116 57 7 267 298 253 266 351 357 321 207 165 175
25 25 55 48 75 97 103 103 96 70 59 48 49 36 103 65 33 339 360 15 28 50 51 47 63 103 99 94 91 83 109 83 99 123 195 251 277 330 316 354 320 18 161 175 171
28 21 45 52 91 93 106 106 89 89 57 75 65 61 62 71 343 350 17 40 45 51 43 39 67 82 90 65 47 86 101 110 79 36 52 332 336 302 37 345 7 104 141 139 146
22 24 31 47 90 101 116 122 109 61 18 27 26 87 62 51 1 11 41 40 42 55 66 46 54 68 106 103 77 113 125 153 50 352 82 314 152 80 12 6 42 74 84 100 115
21 17 27 41 61 112 122 130 117 62 31 11 42 70 77 14 18 23 37 45 55 64 77 68 73 84 41 132 100 101 160 301 79 359 45 309 88 100 9 354 0 35 97 112 109
18 18 27 29 93 116 121 124 125 100 40 38 34 60 68 357 11 4 15 8 28 48 54 63 63 65 70 150 133 41 39 349 343 49 335 11 328 49 7 356 354 321 120 123 112
15 18 27 30 103 122 108 85 89 297 14 34 39 129 39 339 325 350 354 22 35 331 81 42 54 68 38 5 40 352 339 311 309 9 344 323 314 347 6 7 24 77 116 104 83
12 12 13 22 144 157 358 344 240 52 35 46 63 76 336 327 360 4 357 334 15 58 58 28 68 60 39 24 15 344 309 302 323 39 330 312 327 27 10 30 56 86 98 95 99
10 9 10 20 96 208 261 77 95 125 93 36 43 47 6 346 357 12 9 60 40 59 316 97 72 49 90 27 309 266 296 341 306 351 327 335 335 57 36 44 61 107 113 120 123
7 7 9 15 20 76 93 109 118 109 74 33 40 16 345 354 45 352 4 40 61 61 46 87 101 156 178 37 11 83 356 336 303 319 316 314 161 152 75 80 88 89 112 123 119
6 4 9 22 63 85 70 116 107 97 117 5 360 37 344 14 71 348 11 9 55 108 93 76 64 147 137 80 350 310 37 314 302 313 312 336 307 135 120 129 101 127 142 138 130
2 0 4 38 95 49 144 127 103 277 2 6 0 328 12 61 317 37 17 8 67 73 274 84 105 106 82 31 284 1 335 303 300 284 303 144 268 117 202 190 187 176 166 161 145
357 2 6 26 53 71 126 147 131 182 252 64 337 349 4 29 36 316 28 46 33 69 50 83 53 15 28 268 259 325 234 169 162 297 256 47 344 222 152 104 184 189 190 177 168
353 359 16 34 76 75 337 268 135 198 64 42 15 13 65 14 30 16 38 40 24 349 24 86 73 63 7 299 228 320 281 326 276 275 319 125 286 307 95 288 279 215 193 178 140
346 350 16 36 40 113 347 248 201 97 175 120 13 22 62 3 46 20 69 73 50 11 53 356 290 15 3 32 358 9 344 45 302 296 307 118 231 156 32 348 328 202 166 159 161
339 347 46 7 35 75 85 236 338 180 130 156 126 108 98 64 353 54 49 68 35 12 36 350 266 109 38 11 335 40 20 3 286 8 263 258 240 167 148 140 146 159 178 194 125
330 357 45 3 54 83 87 133 52 360 105 128 176 294 151 21 10 30 34 44 105 44 321 104 295 44 57 198 66 12 123 255 206 308 299 225 282 272 177 205 202 202 213 198 336
312 222 350 26 75 74 90 107 167 32 17 9 147 126 91 103 54 93 111 149 187 106 60 98 244 133 218 206 360 169 179 135 297 257 279 305 279 98 274 293 241 210 192 300 338
3 245 334 90 62 64 106 134 161 152 96 96 88 81 91 143 110 117 124 95 148 157 76 73 37 279 299 108 308 299 257 252 290 237 246 292 281 110 121 99 134 183 215 318 338
336 286 353 208 174 112 131 110 181 153 153 144 113 24 101 142 209 172 179 100 163 176 166 171 173 306 225 158 166 220 193 230 266 275 248 266 274 166 173 199 231 264 281 312 328
282 234 58 57 43 137 149 164 146 7 124 117 126 133 136 141 33 168 210 187 191 189 161 176 209 229 259 292 281 276 265 243 235 262 266 242 278 270 264 289 306 269 288 317 322
7 122 11 159 130 130 124 151 150 176 113 171 149 216 168 167 187 227 201 176 186 191 152 188 238 224 253 273 267 266 271 271 246 242 247 270 288 292 309 312 302 307 306 314 320
174 168 153 84 111 131 171 204 173 167 161 189 222 180 189 212 209 222 178 203 217 178 180 196 250 142 252 261 278 272 267 262 250 254 256 267 277 340 77 248 275 295 310 314 324
161 138 272 51 141 181 189 166 200 161 190 150 197 163 210 239 212 92 63 55 102 180 193 167 210 179 252 60 309 271 275 234 217 231 224 240 303 148 278 284 292 308 315 320 327